Simultaneous Nadir Overpasses (SNOs) Predictions

Prediction of SNOs between METOP-B and NOAA-19 Satellite Orbit:

Table of predicted SNOs for the next 14.0 days since TLE Epoch: 10/5/2024
Index Date (METOP-B) Time (METOP-B) Lat,Lon (METOP-B) SZA (METOP-B ) Date (NOAA-19) Time (NOAA-19) Lat,Lon (NOAA-19) SZA (NOAA-19 ) Distance(km) Time Diff (sec)
1 10/16/2024 16:19:23 77.97, 29.58 100.72 10/16/2024 16:18:14 77.98, 29.50 100.64 2.01 69
2 10/16/2024 17:09:57 -77.71,-161.85 78.99 10/16/2024 17:09:09 -77.69,-161.74 79.00 3.16 48
3 10/16/2024 18:00:35 77.58, 6.10 101.18 10/16/2024 18:00:01 77.57, 6.17 101.17 1.89 34
4 10/16/2024 18:51:11 -77.40, 174.22 78.62 10/16/2024 18:50:59 -77.40, 174.24 78.63 0.58 12
5 10/16/2024 19:41:50 77.30, -18.03 101.50 10/16/2024 19:41:52 77.31, -18.06 101.50 0.80 2
6 10/16/2024 20:32:24 -77.04, 150.41 78.21 10/16/2024 20:32:48 -77.05, 150.35 78.20 2.02 24
7 10/16/2024 21:23:00 76.81, -41.34 102.05 10/16/2024 21:23:37 76.79, -41.25 102.11 3.00 37
8 10/16/2024 22:13:35 -76.58, 126.85 77.71 10/16/2024 22:14:34 -76.57, 126.90 77.64 1.93 59



Historial Predications of SNOs between METOP-B and NOAA-19
